GW6808 Weather Reports


Display with metric or nautical units.
time (UTC)temp
F
wind
direction
speed
MPH
gust
MPH
rain 1hr
in
rain 24hr
in
rain mn
in
humidity
%
barometer
mb
20260509044516 55 51 2.0 6.0 0.00 0.37 0.00 93 1010.6
20260509043033 54 38 1.0 3.0 0.00 0.37 0.00 93 1010.6
20260509041524 55 68 1.0 4.0 0.00 0.37 0.00 93 1010.7
20260509040025 55 50 2.0 4.0 0.01 0.37 0.00 93 1010.4
20260509034512 55 43 2.0 4.0 0.01 0.37 0.37 93 1010.6
20260509033020 55 47 0.0 3.0 0.02 0.37 0.37 93 1010.6
20260509031529 55 46 1.0 4.0 0.03 0.37 0.37 93 1010.6
20260509030029 55 45 2.0 4.0 0.04 0.36 0.36 92 1010.8
20260509024529 55 65 2.0 5.0 0.04 0.36 0.36 92 1010.8
20260509023016 55 32 2.0 6.0 0.03 0.35 0.35 91 1011.0
20260509021522 55 43 3.0 6.0 0.03 0.34 0.34 90 1010.9
20260509020026 55 58 4.0 9.0 0.02 0.32 0.32 92 1010.8
20260509014527 55 60 2.0 7.0 0.02 0.32 0.32 93 1010.6
20260509013014 55 58 1.0 4.0 0.03 0.32 0.32 93 1010.7
20260509011517 55 46 2.0 3.0 0.03 0.31 0.31 93 1010.6
20260509010011 55 65 0.0 2.0 0.04 0.30 0.30 93 1010.7
20260509004505 55 37 2.0 3.0 0.06 0.30 0.30 93 1010.6
20260509003010 55 55 0.0 3.0 0.06 0.29 0.29 93 1010.7
20260509001516 55 35 2.0 4.0 0.06 0.28 0.28 93 1010.8
20260509000035 55 57 1.0 4.0 0.08 0.26 0.26 92 1011.0
20260508234503 55 34 2.0 3.0 0.06 0.24 0.24 92 1010.9
20260508233007 55 41 2.0 3.0 0.10 0.23 0.23 92 1011.0
20260508231512 55 37 1.0 4.0 0.11 0.22 0.22 92 1011.2
20260508230017 55 56 1.0 2.0 0.11 0.18 0.18 92 1011.2
20260508224540 55 38 1.0 3.0 0.14 0.18 0.18 91 1011.1
20260508223005 55 48 0.0 1.0 0.10 0.13 0.13 91 1011.5
20260508221508 55 88 0.0 1.0 0.10 0.11 0.11 90 1011.3
20260508220023 56 94 1.0 2.0 0.07 0.07 0.07 88 1011.6
20260508214528 56 77 0.0 4.0 0.04 0.04 0.04 86 1011.3
20260508213031 57 83 3.0 10.0 0.03 0.03 0.03 84 1011.2
20260508211510 60 94 3.0 6.0 0.01 0.01 0.01 74 1011.2
20260508210016 63 73 1.0 3.0 0.00 0.00 0.00 60 1010.8
20260508204519 64 71 1.0 2.0 0.00 0.00 0.00 57 1010.7
20260508203023 64 72 0.0 4.0 0.00 0.00 0.00 54 1010.8
20260508201506 65 61 1.0 3.0 0.00 0.00 0.00 53 1011.2
20260508200027 64 62 0.0 4.0 0.00 0.00 0.00 54 1011.2
20260508194516 64 64 2.0 5.0 0.00 0.00 0.00 53 1011.3
20260508193021 63 66 0.0 4.0 0.00 0.00 0.00 55 1011.6
20260508191523 63 60 2.0 4.0 0.00 0.00 0.00 53 1011.8
20260508190014 63 57 1.0 4.0 0.00 0.00 0.00 53 1012.1
20260508184518 63 72 3.0 4.0 0.00 0.00 0.00 52 1012.3
20260508183017 63 65 1.0 6.0 0.00 0.00 0.00 52 1012.4
20260508181524 63 72 2.0 7.0 0.00 0.00 0.00 50 1012.5
20260508180026 64 62 2.0 7.0 0.00 0.00 0.00 48 1012.5
20260508174510 65 39 4.0 13.0 0.00 0.00 0.00 47 1012.5
20260508173017 68 11 4.0 8.0 0.00 0.00 0.00 45 1012.7
20260508171532 67 22 7.0 11.0 0.00 0.00 0.00 46 1012.7
20260508170027 67 24 5.0 8.0 0.00 0.00 0.00 48 1013.2
20260508164526 66 16 4.0 8.0 0.00 0.00 0.00 48 1013.5
20260508163012 65 54 2.0 8.0 0.00 0.00 0.00 47 1013.8
20260508161504 65 96 3.0 7.0 0.00 0.00 0.00 47 1013.7
20260508160004 64 68 3.0 6.0 0.00 0.00 0.00 48 1013.9
20260508154506 63 70 3.0 7.0 0.00 0.00 0.00 49 1014.0
20260508153010 62 76 2.0 7.0 0.00 0.00 0.00 50 1014.3
20260508151515 63 64 3.0 7.0 0.00 0.00 0.00 49 1014.3
20260508150003 63 65 3.0 7.0 0.00 0.00 0.00 49 1014.3
20260508144505 62 70 3.0 7.0 0.00 0.00 0.00 50 1014.4
20260508143016 62 65 2.0 6.0 0.00 0.00 0.00 51 1014.5
20260508141520 60 78 2.0 7.0 0.00 0.00 0.00 53 1014.6
20260508140019 60 53 3.0 7.0 0.00 0.00 0.00 52 1014.7
20260508134502 60 65 2.0 9.0 0.00 0.00 0.00 51 1014.8
20260508133006 59 75 3.0 6.0 0.00 0.00 0.00 51 1014.9
20260508131513 58 72 4.0 6.0 0.00 0.00 0.00 52 1014.9
20260508130020 58 58 2.0 4.0 0.00 0.00 0.00 53 1015.0
20260508124521 57 85 1.0 3.0 0.00 0.00 0.00 53 1014.9
20260508123007 56 74 1.0 2.0 0.00 0.00 0.00 55 1014.8
20260508121510 55 71 0.0 2.0 0.00 0.00 0.00 57 1014.9
20260508120019 53 74 0.0 1.0 0.00 0.00 0.00 60 1014.9
20260508114527 51 78 0.0 1.0 0.00 0.00 0.00 63 1014.8
20260508113034 50 79 0.0 1.0 0.00 0.00 0.00 63 1014.7
20260508111505 50 53 0.0 2.0 0.00 0.00 0.00 64 1014.7
20260508110008 50 109 1.0 3.0 0.00 0.00 0.00 61 1014.5
20260508104515 50 50 1.0 3.0 0.00 0.00 0.00 60 1014.3
20260508103018 50 49 1.0 4.0 0.00 0.00 0.00 60 1014.3
20260508101530 50 53 0.0 2.0 0.00 0.00 0.00 60 1014.2
20260508100009 50 58 0.0 2.0 0.00 0.00 0.00 62 1014.2
20260508094513 51 63 0.0 3.0 0.00 0.00 0.00 61 1014.3
20260508093016 51 53 1.0 2.0 0.00 0.00 0.00 59 1014.4
20260508091523 52 63 1.0 2.0 0.00 0.00 0.00 57 1014.4
20260508090033 53 59 1.0 4.0 0.00 0.00 0.00 56 1014.4
20260508084508 53 40 1.0 3.0 0.00 0.00 0.00 55 1014.5
20260508083015 53 44 1.0 2.0 0.00 0.00 0.00 55 1014.7
20260508081519 53 66 0.0 3.0 0.00 0.00 0.00 56 1014.8
20260508080024 53 74 1.0 4.0 0.00 0.00 0.00 54 1014.9
20260508074526 53 88 1.0 5.0 0.00 0.00 0.00 54 1014.9
20260508073012 53 31 1.0 3.0 0.00 0.00 0.00 55 1014.8
20260508071515 52 61 3.0 5.0 0.00 0.00 0.00 55 1014.8
20260508070021 53 55 2.0 5.0 0.00 0.00 0.00 55 1014.7
20260508064547 53 72 2.0 4.0 0.00 0.00 0.00 53 1015.0
20260508063010 53 60 1.0 6.0 0.00 0.00 0.00 53 1015.2
20260508061514 53 69 2.0 5.0 0.00 0.00 0.00 53 1015.1
20260508060018 53 56 1.0 5.0 0.00 0.00 0.00 54 1015.1
20260508054543 53 46 2.0 5.0 0.00 0.00 0.00 53 1015.1
20260508053026 52 60 1.0 4.0 0.00 0.00 0.00 54 1015.2
20260508051519 52 60 2.0 6.0 0.00 0.00 0.00 55 1015.2
20260508050031 52 73 0.0 3.0 0.00 0.00 0.00 56 1015.4